period_start,C,m1,H,J0,J1,J2,J3,J4,J5,JA,JB,JC,JD,JJ,JK,JN,#
2014-02-16 00:00:44,0.20,11.40,0.00,23.11,27.05,29.72,6.02,32.63,1033.71,2038.00,1098.98,1465.03,1599.37,349.31,328.39,24.55,0000 0000 0000 0000 000000
2014-02-16 00:01:44,0.20,11.40,0.00,23.12,27.05,29.73,6.11,32.58,1033.71,2038.00,1098.92,1465.01,1599.13,349.09,328.41,24.56,0000 0000 0000 0000 000000
2014-02-16 00:02:44,0.26,11.41,0.00,23.12,27.05,29.71,6.05,32.67,1033.73,2038.00,1098.44,1464.98,1599.05,350.25,329.51,24.56,0000 0000 0000 0000 000000
2014-02-16 00:03:45,0.36,11.41,0.00,23.12,27.05,29.74,6.06,32.79,1033.72,2038.00,1098.19,1464.91,1599.01,349.61,329.05,24.57,0000 0000 0000 0000 000000
2014-02-16 00:04:45,0.32,11.41,0.00,23.12,27.05,29.73,6.22,32.67,1033.71,2038.00,1098.07,1464.61,1599.00,351.34,330.54,24.58,0000 0000 0000 0000 000000
2014-02-16 00:05:45,0.32,11.41,0.00,23.12,27.05,29.70,6.29,32.67,1033.72,2038.00,1098.02,1464.23,1599.00,350.67,329.92,24.58,0000 0000 0000 0000 000000
2014-02-16 00:06:46,0.30,11.41,0.00,23.12,27.05,29.72,6.17,32.63,1033.72,2038.00,1098.00,1464.08,1598.99,350.65,329.89,24.59,0000 0000 0000 0000 000000
2014-02-16 00:07:46,0.14,11.42,0.00,23.14,27.05,29.73,6.13,32.75,1033.70,2038.00,1097.99,1464.03,1598.93,350.43,329.67,24.59,0000 0000 0000 0000 000000
2014-02-16 00:08:46,0.09,11.42,0.00,23.14,27.05,29.71,6.15,32.71,1033.71,2038.00,1097.93,1464.01,1598.64,350.36,329.60,24.60,0000 0000 0000 0000 000000
2014-02-16 00:09:47,0.21,11.42,0.00,23.14,27.06,29.71,6.27,32.88,1033.71,2038.00,1097.59,1464.00,1598.30,351.46,330.63,24.61,0000 0000 0000 0000 000000
2014-02-16 00:10:47,0.40,11.42,0.00,23.15,27.06,29.72,6.06,33.13,1033.72,2038.00,1097.26,1463.99,1598.12,349.69,328.97,24.61,0000 0000 0000 0000 000000
2014-02-16 00:11:47,0.35,11.42,0.00,23.15,27.07,29.70,6.03,32.46,1033.73,2038.00,1097.12,1463.92,1598.04,350.11,329.35,24.62,0000 0000 0000 0000 000000
2014-02-16 00:12:47,0.24,11.42,0.00,23.16,27.07,29.69,6.15,32.58,1033.72,2038.00,1097.04,1463.58,1598.01,349.77,329.02,24.62,0000 0000 0000 0000 000000
2014-02-16 00:13:48,0.29,11.43,0.00,23.17,27.07,29.69,6.10,32.92,1033.72,2038.00,1097.01,1463.32,1598.00,349.87,329.04,24.63,0000 0000 0000 0000 000000
2014-02-16 00:14:48,0.22,11.43,0.00,23.17,27.07,29.67,6.08,32.71,1033.73,2038.00,1097.00,1463.14,1597.96,350.07,329.30,24.63,0000 0000 0000 0000 000000
2014-02-16 00:15:48,0.13,11.43,0.00,23.17,27.07,29.70,6.13,32.67,1033.72,2038.00,1097.00,1463.06,1597.82,350.56,329.76,24.64,0000 0000 0000 0000 000000
2014-02-16 00:16:49,0.12,11.43,0.00,23.18,27.07,29.69,6.10,32.75,1033.71,2038.00,1096.99,1463.02,1597.53,350.29,328.85,24.65,0000 0000 0000 0000 000000
2014-02-16 00:17:49,0.16,11.43,0.00,23.19,27.07,29.67,6.02,32.71,1033.71,2038.00,1096.95,1463.00,1597.22,349.01,328.50,24.65,0000 0000 0000 0000 000000
2014-02-16 00:18:49,0.17,11.43,0.00,23.19,27.07,29.68,6.05,32.75,1033.71,2038.00,1096.74,1462.97,1597.08,350.57,330.13,24.66,0000 0000 0000 0000 000000
2014-02-16 00:19:50,0.29,11.43,0.00,23.20,27.07,29.68,6.05,32.79,1033.71,2038.00,1096.36,1462.92,1597.03,350.49,329.85,24.66,0000 0000 0000 0000 000000
2014-02-16 00:20:50,0.40,11.43,0.00,23.20,27.07,29.68,6.17,32.54,1033.72,2037.98,1096.17,1462.65,1597.01,350.26,329.44,24.67,0000 0000 0000 0000 000000
2014-02-16 00:21:50,0.33,11.44,0.00,23.21,27.08,29.68,6.06,32.75,1033.71,2037.98,1096.07,1462.34,1597.00,350.08,329.20,24.68,0000 0000 0000 0000 000000
2014-02-16 00:22:50,0.28,11.44,0.00,23.22,27.08,29.69,6.03,32.67,1033.71,2037.99,1096.02,1462.16,1596.99,349.99,328.88,24.68,0000 0000 0000 0000 000000
2014-02-16 00:23:50,0.20,11.44,0.00,23.22,27.09,29.68,6.07,32.88,1033.72,2037.99,1096.00,1462.06,1596.78,350.19,329.35,24.69,0000 0000 0000 0000 000000
2014-02-16 00:24:51,0.18,11.44,0.00,23.22,27.09,29.68,6.20,32.79,1033.72,2037.99,1096.00,1462.02,1596.45,350.54,329.23,24.69,0000 0000 0000 0000 000000
2014-02-16 00:25:51,0.16,11.44,0.00,23.22,27.10,29.68,6.12,32.75,1033.71,2037.99,1096.00,1462.00,1596.22,349.38,328.58,24.70,0000 0000 0000 0000 000000
2014-02-16 00:26:51,0.10,11.44,0.00,23.22,27.10,29.68,6.08,32.33,1033.71,2037.98,1095.94,1461.98,1596.08,350.55,329.69,24.70,0000 0000 0000 0000 000000
2014-02-16 00:27:51,0.18,11.44,0.00,23.23,27.10,29.69,6.13,32.75,1033.73,2037.99,1095.70,1461.96,1596.03,349.60,328.79,24.71,0000 0000 0000 0000 000000
2014-02-16 00:28:51,0.21,11.44,0.00,23.24,27.10,29.70,6.09,32.75,1033.73,2037.98,1095.39,1461.78,1596.01,350.12,329.26,24.72,0000 0000 0000 0000 000000
2014-02-16 00:29:52,0.40,11.45,0.00,23.24,27.10,29.69,6.21,32.92,1033.72,2037.98,1095.14,1461.39,1595.99,350.51,329.89,24.72,0000 0000 0000 0000 000000
2014-02-16 00:30:52,0.48,11.45,0.00,23.24,27.10,29.69,6.07,32.63,1033.72,2037.99,1095.05,1461.15,1595.96,351.04,330.23,24.73,0000 0000 0000 0000 000000
2014-02-16 00:31:52,0.28,11.45,0.00,23.24,27.10,29.68,6.00,32.88,1033.73,2037.98,1095.03,1461.06,1595.77,349.53,328.71,24.73,0000 0000 0000 0000 000000
2014-02-16 00:32:52,0.16,11.45,0.00,23.24,27.10,29.70,6.12,32.50,1033.71,2037.98,1095.02,1461.02,1595.37,350.18,329.05,24.74,0000 0000 0000 0000 000000
2014-02-16 00:33:52,0.18,11.45,0.00,23.24,27.11,29.70,6.15,32.71,1033.71,2037.98,1095.00,1461.00,1595.16,350.56,329.76,24.75,0000 0000 0000 0000 000000
2014-02-16 00:34:53,0.12,11.45,0.00,23.25,27.12,29.72,6.21,32.92,1033.71,2037.99,1094.95,1460.98,1595.06,350.34,329.05,24.75,0000 0000 0000 0000 000000
2014-02-16 00:35:53,0.09,11.45,0.00,23.25,27.12,29.77,6.22,32.75,1033.71,2037.98,1094.85,1460.96,1595.02,350.14,329.35,24.76,0000 0000 0000 0000 000000
2014-02-16 00:36:53,0.14,11.45,0.00,23.25,27.12,29.74,6.16,32.63,1033.72,2037.98,1094.63,1460.85,1595.00,350.81,330.09,24.76,0000 0000 0000 0000 000000
2014-02-16 00:37:53,0.31,11.46,0.00,23.25,27.12,29.74,5.98,32.50,1033.71,2037.98,1094.30,1460.59,1595.00,349.20,328.53,24.77,0000 0000 0000 0000 000000
2014-02-16 00:38:54,0.39,11.46,0.00,23.27,27.12,29.73,6.19,32.79,1033.71,2037.98,1094.27,1460.39,1594.91,350.99,329.76,24.78,0000 0000 0000 0000 000000
2014-02-16 00:39:54,0.27,11.46,0.00,23.27,27.12,29.75,5.99,32.29,1033.71,2037.98,1094.16,1460.19,1594.60,349.31,328.46,24.78,0000 0000 0000 0000 000000
2014-02-16 00:40:54,0.33,11.46,0.00,23.27,27.12,29.75,6.23,32.71,1033.71,2037.99,1094.08,1460.07,1594.30,350.33,329.88,24.79,0000 0000 0000 0000 000000
2014-02-16 00:41:54,0.29,11.46,0.00,23.27,27.13,29.76,6.12,32.42,1033.72,2037.98,1094.04,1460.02,1594.12,350.08,329.61,24.79,0000 0000 0000 0000 000000
2014-02-16 00:42:54,0.15,11.46,0.00,23.27,27.14,29.75,6.24,32.83,1033.71,2037.99,1094.01,1460.00,1594.04,351.20,330.19,24.80,0000 0000 0000 0000 000000
2014-02-16 00:43:55,0.06,11.47,0.00,23.27,27.15,29.76,6.12,32.58,1033.71,2037.97,1093.98,1459.99,1594.01,350.14,329.24,24.80,0000 0000 0000 0000 000000
2014-02-16 00:44:55,0.02,11.47,0.00,23.27,27.15,29.75,6.04,32.58,1033.71,2037.97,1093.98,1459.97,1594.00,350.88,330.18,24.81,0000 0000 0000 0000 000000
2014-02-16 00:45:55,0.02,11.47,0.00,23.28,27.15,29.76,6.10,32.54,1033.71,2037.98,1093.99,1459.93,1593.99,350.62,329.73,24.82,0000 0000 0000 0000 000000
2014-02-16 00:46:55,0.01,11.47,0.00,23.29,27.15,29.77,6.04,32.50,1033.72,2037.97,1093.87,1459.72,1593.88,350.13,328.64,24.82,0000 0000 0000 0000 000000
2014-02-16 00:47:56,0.42,11.47,0.00,23.29,27.15,29.78,6.10,32.54,1033.71,2037.96,1093.48,1459.32,1593.44,349.85,328.95,24.83,0000 0000 0000 0000 000000
2014-02-16 00:48:56,0.63,11.47,0.00,23.29,27.15,29.78,6.18,32.54,1033.71,2037.93,1093.35,1459.13,1593.16,349.19,328.32,24.83,0000 0000 0000 0000 000000
2014-02-16 00:49:56,0.40,11.47,0.00,23.30,27.15,29.78,6.08,32.33,1033.71,2037.88,1093.15,1459.05,1593.06,350.08,329.16,24.84,0000 0000 0000 0000 000000
2014-02-16 00:50:56,0.20,11.48,0.00,23.30,27.15,29.81,6.23,32.38,1033.71,2037.89,1093.05,1459.01,1593.02,350.33,329.40,24.85,0000 0000 0000 0000 000000
2014-02-16 00:51:57,0.14,11.48,0.00,23.30,27.17,29.81,6.02,32.58,1033.71,2037.81,1093.02,1458.99,1592.99,350.15,329.23,24.85,0000 0000 0000 0000 000000
2014-02-16 00:52:57,-0.04,11.48,0.00,23.30,27.17,29.79,6.16,32.54,1033.71,2037.64,1092.99,1458.95,1592.93,350.69,329.73,24.86,0000 0000 0000 0000 000000
2014-02-16 00:53:57,-0.19,11.47,0.00,23.31,27.17,29.80,6.07,32.50,1033.71,2037.48,1092.98,1458.65,1592.60,349.31,328.42,24.86,0000 0000 0000 0000 000000
2014-02-16 00:54:57,0.14,11.48,0.00,23.31,27.17,29.80,6.19,32.54,1033.66,2037.38,1092.94,1458.29,1592.26,350.44,329.87,24.87,0000 0000 0000 0000 000000
2014-02-16 00:55:58,0.32,11.48,0.00,23.31,27.17,29.82,6.17,32.50,1033.62,2037.40,1092.80,1458.12,1592.11,350.02,329.05,24.87,0000 0000 0000 0000 000000
2014-02-16 00:56:58,0.37,11.48,0.00,23.31,27.17,29.82,6.05,32.25,1033.72,2037.29,1092.38,1458.05,1592.04,349.63,328.72,24.88,0000 0000 0000 0000 000000
2014-02-16 00:57:58,0.28,11.48,0.00,23.32,27.17,29.82,6.03,32.42,1033.71,2037.21,1092.14,1458.00,1592.01,349.83,328.90,24.89,0000 0000 0000 0000 000000
2014-02-16 00:58:58,0.13,11.48,0.00,23.32,27.17,29.82,6.33,32.75,1033.66,2037.18,1092.05,1458.00,1591.96,350.95,329.94,24.89,0000 0000 0000 0000 000000
2014-02-16 00:59:59,0.08,11.48,0.00,23.32,27.18,29.82,6.07,32.58,1033.69,2037.21,1092.02,1457.97,1591.86,349.44,328.81,24.90,0000 0000 0000 0000 000000
2014-02-16 01:00:59,0.15,11.48,0.00,23.32,27.19,29.83,6.12,32.63,1033.69,2037.19,1092.00,1457.70,1591.51,350.37,329.38,24.90,0000 0000 0000 0000 000000
2014-02-16 01:01:59,0.34,11.49,0.00,23.33,27.20,29.82,6.05,32.92,1033.71,2037.11,1091.92,1457.32,1591.20,349.39,328.66,24.91,0000 0000 0000 0000 000000
2014-02-16 01:02:59,0.36,11.49,0.00,23.34,27.20,29.82,6.13,32.58,1033.71,2037.13,1091.59,1457.13,1591.07,351.49,330.43,24.92,0000 0000 0000 0000 000000
2014-02-16 01:04:00,0.51,11.49,0.00,23.35,27.20,29.81,6.05,32.75,1033.71,2037.15,1091.28,1457.05,1591.02,349.06,328.15,24.92,0000 0000 0000 0000 000000
2014-02-16 01:05:00,0.42,11.49,0.00,23.35,27.20,29.82,6.21,32.67,1033.71,2037.17,1091.12,1457.01,1590.98,350.90,329.87,24.93,0000 0000 0000 0000 000000
2014-02-16 01:06:00,0.13,11.49,0.00,23.35,27.20,29.82,6.05,32.54,1033.68,2037.12,1091.04,1456.99,1590.87,350.15,329.49,24.93,0000 0000 0000 0000 000000
2014-02-16 01:07:00,0.07,11.49,0.00,23.36,27.20,29.84,6.05,32.38,1033.69,2037.11,1091.01,1456.85,1590.50,350.56,329.78,24.94,0000 0000 0000 0000 000000
2014-02-16 01:08:00,0.30,11.50,0.00,23.37,27.20,29.85,6.02,32.75,1033.71,2037.07,1090.99,1456.42,1590.19,348.73,327.81,24.95,0000 0000 0000 0000 000000
2014-02-16 01:09:01,0.41,11.50,0.00,23.37,27.21,29.84,5.96,32.50,1033.71,2037.06,1090.81,1456.19,1590.06,350.16,329.16,24.95,0000 0000 0000 0000 000000
2014-02-16 01:10:01,0.35,11.50,0.00,23.36,27.22,29.84,6.09,32.42,1033.71,2037.09,1090.50,1456.08,1590.02,350.14,329.17,24.96,0000 0000 0000 0000 000000
2014-02-16 01:11:01,0.45,11.50,0.00,23.37,27.22,29.84,6.06,32.63,1033.71,2037.08,1090.21,1456.02,1590.00,349.05,328.11,24.96,0000 0000 0000 0000 000000
2014-02-16 01:12:01,0.25,11.51,0.00,23.37,27.22,29.84,6.03,32.42,1033.72,2037.04,1090.07,1456.01,1589.95,349.40,328.48,24.97,0000 0000 0000 0000 000000
2014-02-16 01:13:02,0.09,11.51,0.00,23.37,27.22,29.85,6.12,32.79,1033.72,2037.01,1090.02,1456.00,1589.70,350.49,329.84,24.97,0000 0000 0000 0000 000000
2014-02-16 01:14:02,0.13,11.51,0.00,23.37,27.22,29.86,5.99,32.46,1033.71,2037.01,1090.00,1455.92,1589.34,349.67,328.69,24.98,0000 0000 0000 0000 000000
2014-02-16 01:15:02,0.25,11.51,0.00,23.37,27.22,29.87,5.96,32.71,1033.72,2037.01,1089.97,1455.64,1589.13,348.67,327.63,24.99,0000 0000 0000 0000 000000
2014-02-16 01:16:02,0.30,11.51,0.00,23.37,27.22,29.88,5.98,32.50,1033.81,2037.00,1089.64,1455.26,1589.05,349.61,328.66,24.99,0000 0000 0000 0000 000000
2014-02-16 01:17:03,0.60,11.51,0.00,23.37,27.23,29.89,6.08,32.75,1033.87,2037.01,1089.28,1455.10,1589.01,349.66,328.73,25.00,0000 0000 0000 0000 000000
2014-02-16 01:18:03,0.44,11.52,0.00,23.38,27.23,29.89,6.10,32.46,1033.95,2037.01,1089.10,1455.03,1588.97,351.07,329.42,25.00,0000 0000 0000 0000 000000
2014-02-16 01:19:03,0.22,11.52,0.00,23.39,27.24,29.89,6.22,32.54,1033.74,2037.00,1089.03,1455.00,1588.76,349.85,329.03,25.01,0000 0000 0000 0000 000000
2014-02-16 01:20:03,0.17,11.52,0.00,23.39,27.25,29.89,6.08,32.67,1033.72,2037.01,1089.01,1454.95,1588.33,350.08,328.90,25.02,0000 0000 0000 0000 000000
2014-02-16 01:21:04,0.22,11.52,0.00,23.40,27.25,29.89,6.08,32.29,1033.71,2037.00,1089.00,1454.73,1588.13,349.41,328.42,25.02,0000 0000 0000 0000 000000
2014-02-16 01:22:04,0.27,11.52,0.00,23.40,27.25,29.89,6.10,32.58,1033.71,2037.00,1088.95,1454.34,1588.05,349.05,328.22,25.03,0000 0000 0000 0000 000000
2014-02-16 01:23:04,0.34,11.52,0.00,23.40,27.25,29.90,6.07,32.46,1033.71,2037.00,1088.75,1454.13,1588.02,350.03,329.05,25.03,0000 0000 0000 0000 000000
2014-02-16 01:24:04,0.35,11.53,0.00,23.40,27.25,29.89,6.13,32.46,1033.71,2037.00,1088.37,1454.06,1588.00,349.97,328.94,25.04,0000 0000 0000 0000 000000
2014-02-16 01:25:05,0.37,11.53,0.00,23.40,27.25,29.90,6.08,32.46,1033.71,2037.00,1088.14,1454.02,1587.87,349.46,328.46,25.04,0000 0000 0000 0000 000000
2014-02-16 01:26:05,0.29,11.53,0.00,23.41,27.25,29.90,6.20,32.46,1033.71,2037.00,1088.05,1453.98,1587.44,350.24,329.19,25.05,0000 0000 0000 0000 000000
2014-02-16 01:27:05,0.30,11.53,0.00,23.41,27.25,29.91,6.10,32.67,1033.71,2037.00,1088.00,1453.85,1587.16,349.22,328.54,25.06,0000 0000 0000 0000 000000
2014-02-16 01:28:05,0.26,11.53,0.00,23.42,27.27,29.90,6.23,32.38,1033.85,2037.01,1087.98,1453.56,1587.06,351.96,330.83,25.06,0000 0000 0000 0000 000000
2014-02-16 01:29:06,0.28,11.53,0.00,23.42,27.27,29.90,6.10,32.67,1034.04,2037.00,1087.60,1453.24,1587.02,349.20,328.30,25.07,0000 0000 0000 0000 000000
2014-02-16 01:30:06,0.60,11.54,0.00,23.42,27.27,29.90,6.10,32.88,1033.78,2037.00,1087.29,1453.09,1586.97,349.95,328.72,25.07,0000 0000 0000 0000 000000
2014-02-16 01:31:06,0.41,11.54,0.00,23.42,27.27,29.91,6.08,32.67,1033.71,2037.00,1087.13,1453.03,1586.83,349.81,328.77,25.08,0000 0000 0000 0000 000000
2014-02-16 01:32:07,0.23,11.54,0.00,23.42,27.27,29.92,6.08,32.50,1033.77,2037.00,1087.04,1453.00,1586.46,350.13,329.08,25.09,0000 0000 0000 0000 000000
2014-02-16 01:33:07,0.24,11.54,0.00,23.42,27.27,29.94,6.16,32.50,1033.82,2037.00,1087.01,1452.94,1586.20,349.21,328.24,25.09,0000 0000 0000 0000 000000
2014-02-16 01:34:07,0.18,11.54,0.00,23.42,27.27,29.93,5.96,32.46,1033.76,2037.00,1087.00,1452.75,1586.08,349.19,328.50,25.10,0000 0000 0000 0000 000000
2014-02-16 01:35:07,0.20,11.55,0.00,23.43,27.27,29.95,5.97,32.46,1033.79,2037.00,1086.98,1452.41,1586.02,348.06,327.45,25.10,0000 0000 0000 0000 000000
2014-02-16 01:36:08,0.29,11.55,0.00,23.44,27.28,29.96,6.11,32.46,1034.02,2037.00,1086.87,1452.17,1586.00,350.26,329.60,25.11,0000 0000 0000 0000 000000
2014-02-16 01:37:08,0.29,11.55,0.00,23.44,27.29,29.95,6.04,32.46,1034.15,2037.00,1086.59,1452.06,1585.96,350.16,329.21,25.12,0000 0000 0000 0000 000000
2014-02-16 01:38:08,0.34,11.55,0.00,23.44,27.30,29.93,6.14,32.79,1034.15,2037.00,1086.53,1452.02,1585.82,348.94,328.07,25.12,0000 0000 0000 0000 000000
2014-02-16 01:39:08,0.07,11.55,0.00,23.45,27.30,29.93,6.04,32.54,1034.09,2037.00,1086.40,1452.00,1585.43,349.75,328.63,25.13,0000 0000 0000 0000 000000
2014-02-16 01:40:09,0.39,11.55,0.00,23.45,27.30,29.93,6.02,32.54,1034.10,2037.00,1086.20,1451.98,1585.17,349.75,329.03,25.13,0000 0000 0000 0000 000000
2014-02-16 01:41:09,0.22,11.55,0.00,23.45,27.30,29.92,6.05,32.71,1034.10,2037.00,1086.10,1451.95,1585.06,350.35,329.37,25.14,0000 0000 0000 0000 000000
2014-02-16 01:42:09,0.15,11.56,0.00,23.45,27.30,29.93,6.07,32.54,1034.17,2037.00,1086.04,1451.87,1585.02,349.73,329.11,25.14,0000 0000 0000 0000 000000
2014-02-16 01:43:09,0.12,11.56,0.00,23.47,27.30,29.94,6.22,32.25,1034.17,2037.00,1086.02,1451.53,1585.00,350.65,329.97,25.15,0000 0000 0000 0000 000000
2014-02-16 01:44:09,0.33,11.56,0.00,23.47,27.30,29.95,6.11,32.63,1034.12,2037.00,1086.00,1451.23,1584.99,349.30,328.37,25.16,0000 0000 0000 0000 000000
2014-02-16 01:45:09,0.19,11.56,0.00,23.47,27.30,29.96,6.12,32.42,1034.14,2037.00,1086.00,1451.09,1584.85,349.92,328.95,25.16,0000 0000 0000 0000 000000
2014-02-16 01:46:10,0.18,11.56,0.00,23.47,27.31,29.97,6.07,32.17,1033.97,2036.99,1086.00,1451.03,1584.49,350.34,329.30,25.17,0000 0000 0000 0000 000000
2014-02-16 01:47:10,0.17,11.56,0.00,23.47,27.32,29.95,6.08,32.50,1034.00,2036.98,1085.97,1451.01,1584.22,349.01,328.05,25.17,0000 0000 0000 0000 000000
2014-02-16 01:48:10,0.11,11.56,0.00,23.47,27.32,29.96,6.04,32.58,1034.16,2036.97,1085.90,1450.98,1584.08,349.83,328.88,25.18,0000 0000 0000 0000 000000
2014-02-16 01:49:10,0.11,11.56,0.00,23.47,27.32,29.96,6.14,32.50,1033.96,2036.97,1085.51,1450.96,1584.02,349.92,328.93,25.19,0000 0000 0000 0000 000000
2014-02-16 01:50:10,0.47,11.57,0.00,23.48,27.32,29.96,6.27,32.71,1033.94,2036.95,1085.23,1450.87,1584.01,350.33,329.05,25.19,0000 0000 0000 0000 000000
2014-02-16 01:51:10,0.27,11.57,0.00,23.49,27.32,29.97,6.13,32.79,1033.99,2036.97,1085.09,1450.57,1584.00,350.26,329.20,25.20,0000 0000 0000 0000 000000
2014-02-16 01:52:11,0.39,11.57,0.00,23.50,27.32,29.97,6.15,32.54,1034.06,2036.97,1085.03,1450.22,1583.96,349.53,328.53,25.20,0000 0000 0000 0000 000000
2014-02-16 01:53:11,0.29,11.57,0.00,23.50,27.32,29.97,6.02,32.63,1034.16,2036.98,1085.01,1450.08,1583.66,349.69,328.72,25.21,0000 0000 0000 0000 000000
2014-02-16 01:54:11,0.27,11.57,0.00,23.50,27.33,30.00,6.07,32.71,1034.19,2036.98,1084.99,1450.03,1583.30,350.61,329.59,25.21,0000 0000 0000 0000 000000
2014-02-16 01:55:11,0.20,11.57,0.00,23.50,27.34,30.00,6.14,32.42,1034.19,2036.98,1084.98,1450.01,1583.13,350.09,329.09,25.22,0000 0000 0000 0000 000000
2014-02-16 01:56:12,0.07,11.57,0.00,23.51,27.34,29.98,6.16,32.54,1034.14,2036.95,1084.91,1449.99,1583.05,350.69,329.63,25.23,0000 0000 0000 0000 000000
2014-02-16 01:57:12,0.09,11.58,0.00,23.52,27.35,29.98,5.97,32.29,1034.14,2036.96,1084.62,1449.95,1583.01,349.72,328.71,25.23,0000 0000 0000 0000 000000
2014-02-16 01:58:12,0.29,11.58,0.00,23.52,27.35,29.97,6.16,32.33,1034.19,2036.93,1084.31,1449.89,1582.98,350.10,329.20,25.24,0000 0000 0000 0000 000000
2014-02-16 01:59:12,0.30,11.58,0.00,23.52,27.35,29.97,6.02,32.67,1034.19,2036.95,1084.13,1449.63,1582.97,349.08,328.13,25.24,0000 0000 0000 0000 000000
2014-02-16 02:00:13,0.40,11.58,0.00,23.52,27.35,30.00,5.98,32.54,1034.19,2036.93,1084.04,1449.27,1582.86,348.87,328.16,25.25,0000 0000 0000 0000 000000
2014-02-16 02:01:13,0.34,11.58,0.00,23.52,27.35,30.00,6.09,32.50,1034.18,2036.91,1083.99,1449.11,1582.54,350.42,329.16,25.26,0000 0000 0000 0000 000000
2014-02-16 02:02:13,0.26,11.58,0.00,23.52,27.35,29.99,5.90,32.50,1034.15,2036.84,1083.94,1449.04,1582.23,349.50,328.50,25.26,0000 0000 0000 0000 000000
2014-02-16 02:03:14,0.15,11.59,0.00,23.52,27.35,29.99,6.07,32.42,1034.19,2036.86,1083.89,1449.01,1582.08,349.59,328.69,25.27,0000 0000 0000 0000 000000
2014-02-16 02:04:14,0.16,11.59,0.00,23.52,27.36,30.01,6.02,32.63,1034.13,2036.89,1083.84,1448.99,1582.03,349.47,328.64,25.27,0000 0000 0000 0000 000000
2014-02-16 02:05:14,0.10,11.59,0.00,23.53,27.37,30.02,6.06,32.33,1034.06,2036.94,1083.74,1448.98,1582.01,349.96,328.90,25.28,0000 0000 0000 0000 000000
2014-02-16 02:06:14,0.16,11.59,0.00,23.54,27.37,30.00,6.23,32.67,1034.13,2036.95,1083.35,1448.95,1581.99,351.15,330.03,25.28,0000 0000 0000 0000 000000
2014-02-16 02:07:14,0.42,11.59,0.00,23.54,27.37,30.01,6.08,32.67,1034.14,2036.96,1083.15,1448.74,1581.95,350.44,329.34,25.29,0000 0000 0000 0000 000000
2014-02-16 02:08:15,0.31,11.59,0.00,23.54,27.37,30.03,5.95,32.54,1034.08,2036.87,1083.05,1448.33,1581.68,348.91,328.13,25.30,0000 0000 0000 0000 000000
2014-02-16 02:09:15,0.43,11.59,0.00,23.55,27.37,30.03,6.09,32.46,1034.13,2036.73,1082.91,1448.13,1581.33,349.36,328.33,25.30,0000 0000 0000 0000 000000
2014-02-16 02:10:15,0.28,11.60,0.00,23.55,27.37,30.03,6.01,32.50,1034.09,2036.80,1082.90,1448.04,1581.13,349.46,328.42,25.31,0000 0000 0000 0000 000000
2014-02-16 02:11:15,0.20,11.60,0.00,23.55,27.38,30.02,5.96,32.00,1033.93,2036.87,1082.94,1448.01,1581.05,348.60,327.57,25.31,0000 0000 0000 0000 000000
2014-02-16 02:12:16,0.07,11.60,0.00,23.56,27.39,30.02,6.00,32.54,1033.95,2036.88,1082.69,1448.00,1581.02,349.91,328.77,25.32,0000 0000 0000 0000 000000
2014-02-16 02:13:16,0.33,11.60,0.00,23.57,27.39,30.04,6.11,32.42,1033.95,2036.84,1082.60,1447.99,1581.00,350.77,329.57,25.33,0000 0000 0000 0000 000000
2014-02-16 02:14:16,0.00,11.60,0.00,23.57,27.40,30.05,6.19,32.75,1033.81,2036.86,1082.53,1447.98,1580.98,351.39,330.12,25.33,0000 0000 0000 0000 000000
2014-02-16 02:15:16,0.07,11.60,0.00,23.57,27.40,30.04,5.92,32.42,1033.79,2036.76,1082.30,1447.90,1580.92,349.56,328.38,25.34,0000 0000 0000 0000 000000
2014-02-16 02:16:17,0.15,11.60,0.00,23.57,27.40,30.03,6.03,32.67,1034.08,2036.64,1082.11,1447.52,1580.60,349.53,328.45,25.34,0000 0000 0000 0000 000000
2014-02-16 02:17:17,0.47,11.60,0.00,23.59,27.40,30.03,6.01,32.63,1034.15,2036.45,1082.03,1447.21,1580.26,350.33,329.21,25.35,0000 0000 0000 0000 000000
2014-02-16 02:18:17,0.22,11.61,0.00,23.59,27.40,30.03,6.13,32.25,1034.07,2036.40,1082.00,1447.07,1580.10,350.66,329.49,25.36,0000 0000 0000 0000 000000
2014-02-16 02:19:17,0.08,11.61,0.00,23.60,27.40,30.04,6.07,32.50,1034.00,2036.31,1082.00,1447.02,1580.03,350.31,329.14,25.36,0000 0000 0000 0000 000000
2014-02-16 02:20:18,-0.08,11.61,0.00,23.60,27.41,30.04,6.12,32.42,1034.11,2036.21,1081.99,1447.00,1580.00,350.70,329.54,25.37,0000 0000 0000 0000 000000
2014-02-16 02:21:18,-0.10,11.61,0.00,23.60,27.42,30.05,6.11,32.46,1034.09,2036.11,1081.95,1446.98,1579.99,350.63,329.47,25.37,0000 0000 0000 0000 000000
2014-02-16 02:22:18,-0.05,11.60,0.00,23.60,27.42,30.05,6.09,32.71,1034.12,2036.05,1081.76,1446.96,1579.96,350.98,329.76,25.38,0000 0000 0000 0000 000000
2014-02-16 02:23:19,0.18,11.61,0.00,23.60,27.42,30.06,6.08,32.38,1034.15,2036.03,1081.35,1446.71,1579.74,349.35,327.91,25.38,0000 0000 0000 0000 000000
2014-02-16 02:24:19,0.67,11.61,0.00,23.60,27.42,30.07,5.97,32.46,1034.14,2036.07,1081.13,1446.32,1579.37,349.37,328.43,25.39,0000 0000 0000 0000 000000
2014-02-16 02:25:19,0.66,11.61,0.00,23.61,27.42,30.05,6.03,32.38,1034.18,2036.04,1081.04,1446.18,1579.18,351.19,329.87,25.40,0000 0000 0000 0000 000000
2014-02-16 02:26:19,0.19,11.61,0.00,23.62,27.42,30.06,6.08,32.54,1034.17,2036.02,1081.01,1446.09,1579.07,348.89,327.83,25.40,0000 0000 0000 0000 000000
2014-02-16 02:27:20,0.10,11.62,0.00,23.62,27.42,30.07,6.24,32.71,1034.19,2036.04,1081.00,1446.04,1579.02,350.44,329.30,25.41,0000 0000 0000 0000 000000
2014-02-16 02:28:20,0.08,11.62,0.00,23.62,27.43,30.07,6.05,32.67,1034.19,2036.05,1080.98,1446.01,1579.00,350.48,329.33,25.41,0000 0000 0000 0000 000000
2014-02-16 02:29:20,0.11,11.62,0.00,23.62,27.43,30.06,6.02,32.63,1034.17,2036.04,1080.74,1445.98,1579.00,349.84,329.06,25.42,0000 0000 0000 0000 000000
2014-02-16 02:30:20,0.17,11.62,0.00,23.62,27.44,30.08,6.13,32.79,1034.18,2036.04,1080.30,1445.87,1578.93,350.33,329.53,25.43,0000 0000 0000 0000 000000
2014-02-16 02:31:20,0.57,11.62,0.00,23.63,27.45,30.08,6.04,32.92,1034.19,2036.03,1080.11,1445.53,1578.53,349.47,328.37,25.43,0000 0000 0000 0000 000000
2014-02-16 02:32:21,0.56,11.62,0.00,23.64,27.45,30.09,6.19,32.79,1034.19,2036.02,1080.03,1445.23,1578.23,349.87,328.73,25.44,0000 0000 0000 0000 000000
2014-02-16 02:33:21,0.38,11.63,0.00,23.64,27.45,30.09,6.03,32.67,1034.19,2036.04,1080.01,1445.09,1578.10,350.44,329.12,25.44,0000 0000 0000 0000 000000
2014-02-16 02:34:21,0.18,11.63,0.00,23.65,27.45,30.08,6.08,32.67,1034.19,2036.04,1079.98,1445.03,1578.03,350.77,329.58,25.45,0000 0000 0000 0000 000000
2014-02-16 02:35:21,0.13,11.63,0.00,23.65,27.45,30.09,6.19,32.21,1034.19,2036.02,1079.79,1445.01,1578.01,350.23,329.36,25.45,0000 0000 0000 0000 000000